Year,Month,Day,Hour,Minute,Value (Times are PST for temperature in C)
2020,03,31,00,00,3.10
2020,03,31,00,01,3.10
2020,03,31,00,02,3.10
2020,03,31,00,03,3.10
2020,03,31,00,04,3.10
2020,03,31,00,05,3.00
2020,03,31,00,06,3.00
2020,03,31,00,07,3.00
2020,03,31,00,08,3.00
2020,03,31,00,09,3.00
2020,03,31,00,10,2.90
2020,03,31,00,11,2.90
2020,03,31,00,12,2.90
2020,03,31,00,13,2.90
2020,03,31,00,14,2.90
2020,03,31,00,15,2.90
2020,03,31,00,16,2.80
2020,03,31,00,17,2.80
2020,03,31,00,18,2.80
2020,03,31,00,19,2.80
2020,03,31,00,20,2.80
2020,03,31,00,21,2.80
2020,03,31,00,22,2.80
2020,03,31,00,23,2.80
2020,03,31,00,24,2.80
2020,03,31,00,25,2.80
2020,03,31,00,26,2.80
2020,03,31,00,27,2.80
2020,03,31,00,28,2.80
2020,03,31,00,29,2.80
2020,03,31,00,30,2.80
2020,03,31,00,31,2.80
2020,03,31,00,32,2.80
2020,03,31,00,33,2.80
2020,03,31,00,34,2.70
2020,03,31,00,35,2.80
2020,03,31,00,36,2.80
2020,03,31,00,37,2.80
2020,03,31,00,38,2.80
2020,03,31,00,39,2.80
2020,03,31,00,40,2.80
2020,03,31,00,41,2.80
2020,03,31,00,42,2.80
2020,03,31,00,43,2.80
2020,03,31,00,44,2.80
2020,03,31,00,45,2.80
2020,03,31,00,46,2.80
2020,03,31,00,47,2.80
2020,03,31,00,48,2.80
2020,03,31,00,49,2.80
2020,03,31,00,50,2.80
2020,03,31,00,51,2.80
2020,03,31,00,52,2.80
2020,03,31,00,53,2.80
2020,03,31,00,54,2.80
2020,03,31,00,55,2.80
2020,03,31,00,56,2.80
2020,03,31,00,57,2.80
2020,03,31,00,58,2.80
2020,03,31,00,59,2.80
2020,03,31,01,00,2.80
2020,03,31,01,01,2.70
2020,03,31,01,02,2.70
2020,03,31,01,03,2.70
2020,03,31,01,04,2.70
2020,03,31,01,05,2.70
2020,03,31,01,06,2.70
2020,03,31,01,07,2.70
2020,03,31,01,08,2.70
2020,03,31,01,09,2.70
2020,03,31,01,10,2.70
2020,03,31,01,11,2.70
2020,03,31,01,12,2.70
2020,03,31,01,13,2.60
2020,03,31,01,14,2.60
2020,03,31,01,15,2.60
2020,03,31,01,16,2.60
2020,03,31,01,17,2.60
2020,03,31,01,18,2.60
2020,03,31,01,19,2.60
2020,03,31,01,20,2.60
2020,03,31,01,21,2.60
2020,03,31,01,22,2.50
2020,03,31,01,23,2.50
2020,03,31,01,24,2.50
2020,03,31,01,25,2.50
2020,03,31,01,26,2.50
2020,03,31,01,27,2.50
2020,03,31,01,28,2.40
2020,03,31,01,29,2.40
2020,03,31,01,30,2.40
2020,03,31,01,31,2.40
2020,03,31,01,32,2.30
2020,03,31,01,33,2.30
2020,03,31,01,34,2.30
2020,03,31,01,35,2.30
2020,03,31,01,36,2.30
2020,03,31,01,37,2.30
2020,03,31,01,38,2.30
2020,03,31,01,39,2.30
2020,03,31,01,40,2.20
2020,03,31,01,41,2.20
2020,03,31,01,42,2.20
2020,03,31,01,43,2.20
2020,03,31,01,44,2.20
2020,03,31,01,45,2.10
2020,03,31,01,46,2.10
2020,03,31,01,47,2.10
2020,03,31,01,48,2.10
2020,03,31,01,49,2.10
2020,03,31,01,50,2.10
2020,03,31,01,51,2.00
2020,03,31,01,52,2.00
2020,03,31,01,53,2.00
2020,03,31,01,54,2.00
2020,03,31,01,55,2.00
2020,03,31,01,56,2.00
2020,03,31,01,57,2.10
2020,03,31,01,58,2.10
2020,03,31,01,59,2.10
2020,03,31,02,00,2.10
2020,03,31,02,01,2.10
2020,03,31,02,02,2.10
2020,03,31,02,03,2.10
2020,03,31,02,04,2.10
2020,03,31,02,05,2.10
2020,03,31,02,06,2.10
2020,03,31,02,07,2.10
2020,03,31,02,08,2.10
2020,03,31,02,09,2.10
2020,03,31,02,10,2.10
2020,03,31,02,11,2.10
2020,03,31,02,12,2.10
2020,03,31,02,13,2.10
2020,03,31,02,14,2.20
2020,03,31,02,15,2.20
2020,03,31,02,16,2.10
2020,03,31,02,17,2.20
2020,03,31,02,18,2.20
2020,03,31,02,19,2.10
2020,03,31,02,20,2.10
2020,03,31,02,21,2.10
2020,03,31,02,22,2.10
2020,03,31,02,23,2.10
2020,03,31,02,24,2.10
2020,03,31,02,25,2.10
2020,03,31,02,26,2.10
2020,03,31,02,27,2.10
2020,03,31,02,28,2.10
2020,03,31,02,29,2.10
2020,03,31,02,30,2.10
2020,03,31,02,31,2.10
2020,03,31,02,32,2.10
2020,03,31,02,33,2.10
2020,03,31,02,34,2.10
2020,03,31,02,35,2.10
2020,03,31,02,36,2.10
2020,03,31,02,37,2.10
2020,03,31,02,38,2.10
2020,03,31,02,39,2.10
2020,03,31,02,40,2.10
2020,03,31,02,41,2.00
2020,03,31,02,42,2.00
2020,03,31,02,43,2.00
2020,03,31,02,44,2.00
2020,03,31,02,45,2.00
2020,03,31,02,46,2.00
2020,03,31,02,47,2.00
2020,03,31,02,48,2.00
2020,03,31,02,49,2.00
2020,03,31,02,50,2.00
2020,03,31,02,51,2.00
2020,03,31,02,52,2.00
2020,03,31,02,53,2.00
2020,03,31,02,54,2.00
2020,03,31,02,55,2.00
2020,03,31,02,56,2.00
2020,03,31,02,57,2.00
2020,03,31,02,58,2.00
2020,03,31,02,59,2.00
2020,03,31,03,00,2.00
2020,03,31,03,01,2.00
2020,03,31,03,02,2.00
2020,03,31,03,03,2.00
2020,03,31,03,04,1.90
2020,03,31,03,05,1.90
2020,03,31,03,06,1.90
2020,03,31,03,07,1.90
2020,03,31,03,08,2.00
2020,03,31,03,09,2.00
2020,03,31,03,10,1.90
2020,03,31,03,11,2.00
2020,03,31,03,12,1.90
2020,03,31,03,13,1.90
2020,03,31,03,14,1.90
2020,03,31,03,15,1.90
2020,03,31,03,16,1.90
2020,03,31,03,17,1.90
2020,03,31,03,18,1.90
2020,03,31,03,19,1.90
2020,03,31,03,20,1.90
2020,03,31,03,21,1.90
2020,03,31,03,22,1.90
2020,03,31,03,23,1.90
2020,03,31,03,24,1.90
2020,03,31,03,25,1.90
2020,03,31,03,26,1.90
2020,03,31,03,27,1.90
2020,03,31,03,28,1.90
2020,03,31,03,29,1.90
2020,03,31,03,30,1.90
2020,03,31,03,31,1.90
2020,03,31,03,32,1.90
2020,03,31,03,33,1.90
2020,03,31,03,34,1.90
2020,03,31,03,35,1.90
2020,03,31,03,36,1.90
2020,03,31,03,37,1.90
2020,03,31,03,38,2.00
2020,03,31,03,39,2.00
2020,03,31,03,40,2.00
2020,03,31,03,41,2.00
2020,03,31,03,42,2.00
2020,03,31,03,43,2.00
2020,03,31,03,44,2.00
2020,03,31,03,45,2.00
2020,03,31,03,46,2.00
2020,03,31,03,47,2.00
2020,03,31,03,48,2.00
2020,03,31,03,49,2.00
2020,03,31,03,50,2.10
2020,03,31,03,51,2.10
2020,03,31,03,52,2.10
2020,03,31,03,53,2.10
2020,03,31,03,54,2.10
2020,03,31,03,55,2.10
2020,03,31,03,56,2.10
2020,03,31,03,57,2.10
2020,03,31,03,58,2.10
2020,03,31,03,59,2.10
2020,03,31,04,00,2.00
2020,03,31,04,01,2.00
2020,03,31,04,02,2.00
2020,03,31,04,03,2.00
2020,03,31,04,04,2.00
2020,03,31,04,05,2.00
2020,03,31,04,06,2.00
2020,03,31,04,07,2.00
2020,03,31,04,08,2.00
2020,03,31,04,09,2.00
2020,03,31,04,10,2.00
2020,03,31,04,11,2.00
2020,03,31,04,12,2.00
2020,03,31,04,13,2.00
2020,03,31,04,14,2.00
2020,03,31,04,15,2.00
2020,03,31,04,16,1.90
2020,03,31,04,17,1.90
2020,03,31,04,18,1.90
2020,03,31,04,19,1.90
2020,03,31,04,20,1.90
2020,03,31,04,21,1.90
2020,03,31,04,22,1.90
2020,03,31,04,23,1.90
2020,03,31,04,24,1.90
2020,03,31,04,25,1.90
2020,03,31,04,26,1.90
2020,03,31,04,27,2.00
2020,03,31,04,28,2.00
2020,03,31,04,29,2.00
2020,03,31,04,30,2.00
2020,03,31,04,31,2.00
2020,03,31,04,32,2.00
2020,03,31,04,33,2.00
2020,03,31,04,34,2.00
2020,03,31,04,35,2.00
2020,03,31,04,36,2.00
2020,03,31,04,37,2.00
2020,03,31,04,38,2.00
2020,03,31,04,39,2.00
2020,03,31,04,40,2.00
2020,03,31,04,41,2.00
2020,03,31,04,42,2.10
2020,03,31,04,43,2.10
2020,03,31,04,44,2.10
2020,03,31,04,45,2.10
2020,03,31,04,46,2.10
2020,03,31,04,47,2.00
2020,03,31,04,48,2.00
2020,03,31,04,49,2.00
2020,03,31,04,50,2.00
2020,03,31,04,51,2.00
2020,03,31,04,52,2.00
2020,03,31,04,53,2.00
2020,03,31,04,54,2.00
2020,03,31,04,55,2.00
2020,03,31,04,56,2.00
2020,03,31,04,57,2.00
2020,03,31,04,58,2.00
2020,03,31,04,59,2.00
2020,03,31,05,00,2.00
2020,03,31,05,01,2.00
2020,03,31,05,02,2.00
2020,03,31,05,03,1.90
2020,03,31,05,04,1.90
2020,03,31,05,05,1.90
2020,03,31,05,06,1.90
2020,03,31,05,07,1.90
2020,03,31,05,08,1.90
2020,03,31,05,09,1.90
2020,03,31,05,10,1.90
2020,03,31,05,11,1.90
2020,03,31,05,12,1.90
2020,03,31,05,13,1.90
2020,03,31,05,14,1.90
2020,03,31,05,15,1.90
2020,03,31,05,16,1.90
2020,03,31,05,17,1.90
2020,03,31,05,18,1.90
2020,03,31,05,19,1.80
2020,03,31,05,20,1.80
2020,03,31,05,21,1.80
2020,03,31,05,22,1.80
2020,03,31,05,23,1.80
2020,03,31,05,24,1.80
2020,03,31,05,25,1.80
2020,03,31,05,26,1.80
2020,03,31,05,27,1.80
2020,03,31,05,28,1.80
2020,03,31,05,29,1.80
2020,03,31,05,30,1.80
2020,03,31,05,31,1.80
2020,03,31,05,32,1.80
2020,03,31,05,33,1.80
2020,03,31,05,34,1.80
2020,03,31,05,35,1.80
2020,03,31,05,36,1.80
2020,03,31,05,37,1.80
2020,03,31,05,38,1.80
2020,03,31,05,39,1.80
2020,03,31,05,40,1.80
2020,03,31,05,41,1.80
2020,03,31,05,42,1.80
2020,03,31,05,43,1.80
2020,03,31,05,44,1.80
2020,03,31,05,45,1.80
2020,03,31,05,46,1.80
2020,03,31,05,47,1.80
2020,03,31,05,48,1.80
2020,03,31,05,49,1.80
2020,03,31,05,50,1.80
2020,03,31,05,51,1.80
2020,03,31,05,52,1.70
2020,03,31,05,53,1.70
2020,03,31,05,54,1.70
2020,03,31,05,55,1.70
2020,03,31,05,56,1.70
2020,03,31,05,57,1.70
2020,03,31,05,58,1.70
2020,03,31,05,59,1.70
2020,03,31,06,00,1.70
2020,03,31,06,01,1.70
2020,03,31,06,02,1.70
2020,03,31,06,03,1.70
2020,03,31,06,04,1.70
2020,03,31,06,05,1.70
2020,03,31,06,06,1.70
2020,03,31,06,07,1.70
2020,03,31,06,08,1.70
2020,03,31,06,09,1.60
2020,03,31,06,10,1.60
2020,03,31,06,11,1.60
2020,03,31,06,12,1.60
2020,03,31,06,13,1.60
2020,03,31,06,14,1.60
2020,03,31,06,15,1.60
2020,03,31,06,16,1.60
2020,03,31,06,17,1.60
2020,03,31,06,18,1.60
2020,03,31,06,19,1.60
2020,03,31,06,20,1.50
2020,03,31,06,21,1.50
2020,03,31,06,22,1.50
2020,03,31,06,23,1.50
2020,03,31,06,24,1.50
2020,03,31,06,25,1.50
2020,03,31,06,26,1.50
2020,03,31,06,27,1.50
2020,03,31,06,28,1.50
2020,03,31,06,29,1.50
2020,03,31,06,30,1.50
2020,03,31,06,31,1.50
2020,03,31,06,32,1.50
2020,03,31,06,33,1.50
2020,03,31,06,34,1.50
2020,03,31,06,35,1.40
2020,03,31,06,36,1.40
2020,03,31,06,37,1.40
2020,03,31,06,38,1.40
2020,03,31,06,39,1.40
2020,03,31,06,40,1.40
2020,03,31,06,41,1.40
2020,03,31,06,42,1.40
2020,03,31,06,43,1.40
2020,03,31,06,44,1.40
2020,03,31,06,45,1.40
2020,03,31,06,46,1.40
2020,03,31,06,47,1.40
2020,03,31,06,48,1.30
2020,03,31,06,49,1.30
2020,03,31,06,50,1.30
2020,03,31,06,51,1.30
2020,03,31,06,52,1.30
2020,03,31,06,53,1.30
2020,03,31,06,54,1.30
2020,03,31,06,55,1.30
2020,03,31,06,56,1.20
2020,03,31,06,57,1.20
2020,03,31,06,58,1.20
2020,03,31,06,59,1.20
2020,03,31,07,00,1.20
2020,03,31,07,01,1.20
2020,03,31,07,02,1.10
2020,03,31,07,03,1.10
2020,03,31,07,04,1.10
2020,03,31,07,05,1.10
2020,03,31,07,06,1.10
2020,03,31,07,07,1.10
2020,03,31,07,08,1.10
2020,03,31,07,09,1.10
2020,03,31,07,10,1.10
2020,03,31,07,11,1.10
2020,03,31,07,12,1.10
2020,03,31,07,13,1.10
2020,03,31,07,14,1.10
2020,03,31,07,15,1.10
2020,03,31,07,16,1.10
2020,03,31,07,17,1.10
2020,03,31,07,18,1.10
2020,03,31,07,19,1.10
2020,03,31,07,20,1.10
2020,03,31,07,21,1.10
2020,03,31,07,22,1.10
2020,03,31,07,23,1.10
2020,03,31,07,24,1.10
2020,03,31,07,25,1.10
2020,03,31,07,26,1.10
2020,03,31,07,27,1.10
2020,03,31,07,28,1.10
2020,03,31,07,29,1.10
2020,03,31,07,30,1.10
2020,03,31,07,31,1.10
2020,03,31,07,32,1.10
2020,03,31,07,33,1.10
2020,03,31,07,34,1.10
2020,03,31,07,35,1.10
2020,03,31,07,36,1.10
2020,03,31,07,37,1.10
2020,03,31,07,38,1.10
2020,03,31,07,39,1.10
2020,03,31,07,40,1.20
2020,03,31,07,41,1.20
2020,03,31,07,42,1.20
2020,03,31,07,43,1.20
2020,03,31,07,44,1.20
2020,03,31,07,45,1.20
2020,03,31,07,46,1.20
2020,03,31,07,47,1.20
2020,03,31,07,48,1.20
2020,03,31,07,49,1.20
2020,03,31,07,50,1.20
2020,03,31,07,51,1.20
2020,03,31,07,52,1.20
2020,03,31,07,53,1.30
2020,03,31,07,54,1.30
2020,03,31,07,55,1.30
2020,03,31,07,56,1.30
2020,03,31,07,57,1.30
2020,03,31,07,58,1.30
2020,03,31,07,59,1.30
2020,03,31,08,00,1.30
2020,03,31,08,01,1.30
2020,03,31,08,02,1.30
2020,03,31,08,03,1.30
2020,03,31,08,04,1.30
2020,03,31,08,05,1.30
2020,03,31,08,06,1.30
2020,03,31,08,07,1.30
2020,03,31,08,08,1.30
2020,03,31,08,09,1.30
2020,03,31,08,10,1.30
2020,03,31,08,11,1.30
2020,03,31,08,12,1.30
2020,03,31,08,13,1.30
2020,03,31,08,14,1.40
2020,03,31,08,15,1.40
2020,03,31,08,16,1.40
2020,03,31,08,17,1.40
2020,03,31,08,18,1.40
2020,03,31,08,19,1.50
2020,03,31,08,20,1.50
2020,03,31,08,21,1.50
2020,03,31,08,22,1.60
2020,03,31,08,23,1.60
2020,03,31,08,24,1.60
2020,03,31,08,25,1.70
2020,03,31,08,26,1.80
2020,03,31,08,27,1.80
2020,03,31,08,28,1.80
2020,03,31,08,29,1.80
2020,03,31,08,30,1.90
2020,03,31,08,31,1.90
2020,03,31,08,32,1.90
2020,03,31,08,33,1.90
2020,03,31,08,34,1.90
2020,03,31,08,35,2.00
2020,03,31,08,36,2.00
2020,03,31,08,37,2.00
2020,03,31,08,38,2.00
2020,03,31,08,39,2.00
2020,03,31,08,40,2.00
2020,03,31,08,41,2.00
2020,03,31,08,42,2.00
2020,03,31,08,43,1.90
2020,03,31,08,44,1.90
2020,03,31,08,45,1.90
2020,03,31,08,46,1.90
2020,03,31,08,47,1.90
2020,03,31,08,48,1.90
2020,03,31,08,49,1.90
2020,03,31,08,50,1.90
2020,03,31,08,51,1.90
2020,03,31,08,52,2.00
2020,03,31,08,53,2.00
2020,03,31,08,54,2.00
2020,03,31,08,55,2.00
2020,03,31,08,56,2.10
2020,03,31,08,57,2.10
2020,03,31,08,58,2.10
2020,03,31,08,59,2.10
2020,03,31,09,00,2.10
2020,03,31,09,01,2.10
2020,03,31,09,02,2.10
2020,03,31,09,03,2.10
2020,03,31,09,04,2.10
2020,03,31,09,05,2.10
2020,03,31,09,06,2.20
2020,03,31,09,07,2.20
2020,03,31,09,08,2.20
2020,03,31,09,09,2.20
2020,03,31,09,10,2.30
2020,03,31,09,11,2.30
2020,03,31,09,12,2.30
2020,03,31,09,13,2.30
2020,03,31,09,14,2.30
2020,03,31,09,15,2.40
2020,03,31,09,16,2.40
2020,03,31,09,17,2.40
2020,03,31,09,18,2.40
2020,03,31,09,19,2.40
2020,03,31,09,20,2.50
2020,03,31,09,21,2.50
2020,03,31,09,22,2.50
2020,03,31,09,23,2.50
2020,03,31,09,24,2.60
2020,03,31,09,25,2.60
2020,03,31,09,26,2.60
2020,03,31,09,27,2.70
2020,03,31,09,28,2.70
2020,03,31,09,29,2.80
2020,03,31,09,30,2.80
2020,03,31,09,31,2.80
2020,03,31,09,32,2.80
2020,03,31,09,33,2.90
2020,03,31,09,34,2.90
2020,03,31,09,35,3.00
2020,03,31,09,36,3.00
2020,03,31,09,37,3.10
2020,03,31,09,38,3.20
2020,03,31,09,39,3.30
2020,03,31,09,40,3.40
2020,03,31,09,41,3.50
2020,03,31,09,42,3.60
2020,03,31,09,43,3.70
2020,03,31,09,44,3.80
2020,03,31,09,45,3.90
2020,03,31,09,46,4.00
2020,03,31,09,47,4.00
2020,03,31,09,48,4.10
2020,03,31,09,49,4.10
2020,03,31,09,50,4.20
2020,03,31,09,51,4.20
2020,03,31,09,52,4.20
2020,03,31,09,53,4.30
2020,03,31,09,54,4.40
2020,03,31,09,55,4.40
2020,03,31,09,56,4.40
2020,03,31,09,57,4.40
2020,03,31,09,58,4.40
2020,03,31,09,59,4.40
2020,03,31,10,00,4.50
2020,03,31,10,01,4.40
2020,03,31,10,02,4.40
2020,03,31,10,03,4.40
2020,03,31,10,04,4.40
2020,03,31,10,05,4.50
2020,03,31,10,06,4.50
2020,03,31,10,07,4.50
2020,03,31,10,08,4.50
2020,03,31,10,09,4.50
2020,03,31,10,10,4.60
2020,03,31,10,11,4.60
2020,03,31,10,12,4.60
2020,03,31,10,13,4.60
2020,03,31,10,14,4.70
2020,03,31,10,15,4.70
2020,03,31,10,16,4.80
2020,03,31,10,17,4.80
2020,03,31,10,18,4.90
2020,03,31,10,19,5.00
2020,03,31,10,20,5.10
2020,03,31,10,21,5.10
2020,03,31,10,22,5.20
2020,03,31,10,23,5.30
2020,03,31,10,24,5.30
2020,03,31,10,25,5.30
2020,03,31,10,26,5.30
2020,03,31,10,27,5.30
2020,03,31,10,28,5.40
2020,03,31,10,29,5.40
2020,03,31,10,30,5.40
2020,03,31,10,31,5.40
2020,03,31,10,32,5.40
2020,03,31,10,33,5.40
2020,03,31,10,34,5.40
2020,03,31,10,35,5.50
2020,03,31,10,36,5.50
2020,03,31,10,37,5.60
2020,03,31,10,38,5.60
2020,03,31,10,39,5.70
2020,03,31,10,40,5.70
2020,03,31,10,41,5.70
2020,03,31,10,42,5.80
2020,03,31,10,43,5.80
2020,03,31,10,44,5.90
2020,03,31,10,45,6.00
2020,03,31,10,46,6.10
2020,03,31,10,47,6.20
2020,03,31,10,48,6.30
2020,03,31,10,49,6.40
2020,03,31,10,50,6.50
2020,03,31,10,51,6.50
2020,03,31,10,52,6.60
2020,03,31,10,53,6.60
2020,03,31,10,54,6.70
2020,03,31,10,55,6.70
2020,03,31,10,56,6.70
2020,03,31,10,57,6.70
2020,03,31,10,58,6.80
2020,03,31,10,59,6.80
2020,03,31,11,00,6.90
2020,03,31,11,01,6.90
2020,03,31,11,02,7.00
2020,03,31,11,03,7.10
2020,03,31,11,04,7.20
2020,03,31,11,05,7.20
2020,03,31,11,06,7.30
2020,03,31,11,07,7.30
2020,03,31,11,08,7.30
2020,03,31,11,09,7.20
2020,03,31,11,10,7.30
2020,03,31,11,11,7.30
2020,03,31,11,12,7.30
2020,03,31,11,13,7.30
2020,03,31,11,14,7.30
2020,03,31,11,15,7.20
2020,03,31,11,16,7.20
2020,03,31,11,17,7.20
2020,03,31,11,18,7.20
2020,03,31,11,19,7.20
2020,03,31,11,20,7.20
2020,03,31,11,21,7.30
2020,03,31,11,22,7.30
2020,03,31,11,23,7.30
2020,03,31,11,24,7.40
2020,03,31,11,25,7.40
2020,03,31,11,26,7.30
2020,03,31,11,27,7.30
2020,03,31,11,28,7.30
2020,03,31,11,29,7.40
2020,03,31,11,30,7.40
2020,03,31,11,31,7.50
2020,03,31,11,32,7.50
2020,03,31,11,33,7.60
2020,03,31,11,34,7.70
2020,03,31,11,35,7.80
2020,03,31,11,36,7.80
2020,03,31,11,37,7.90
2020,03,31,11,38,8.00
2020,03,31,11,39,8.10
2020,03,31,11,40,8.20
2020,03,31,11,41,8.30
2020,03,31,11,42,8.30
2020,03,31,11,43,8.30
2020,03,31,11,44,8.30
2020,03,31,11,45,8.30
2020,03,31,11,46,8.30
2020,03,31,11,47,8.30
2020,03,31,11,48,8.30
2020,03,31,11,49,8.30
2020,03,31,11,50,8.20
2020,03,31,11,51,8.20
2020,03,31,11,52,8.20
2020,03,31,11,53,8.10
2020,03,31,11,54,8.00
2020,03,31,11,55,8.00
2020,03,31,11,56,8.00
2020,03,31,11,57,8.00
2020,03,31,11,58,8.00
2020,03,31,11,59,8.00
2020,03,31,12,00,8.00
2020,03,31,12,01,8.00
2020,03,31,12,02,8.00
2020,03,31,12,03,8.00
2020,03,31,12,04,8.10
2020,03,31,12,05,8.10
2020,03,31,12,06,8.00
2020,03,31,12,07,8.00
2020,03,31,12,08,8.00
2020,03,31,12,09,8.00
2020,03,31,12,10,8.00
2020,03,31,12,11,8.00
2020,03,31,12,12,8.00
2020,03,31,12,13,8.00
2020,03,31,12,14,8.00
2020,03,31,12,15,8.10
2020,03,31,12,16,8.10
2020,03,31,12,17,8.10
2020,03,31,12,18,8.10
2020,03,31,12,19,8.10
2020,03,31,12,20,8.10
2020,03,31,12,21,8.10
2020,03,31,12,22,8.00
2020,03,31,12,23,8.00
2020,03,31,12,24,8.00
2020,03,31,12,25,8.00
2020,03,31,12,26,8.10
2020,03,31,12,27,8.10
2020,03,31,12,28,8.20
2020,03,31,12,29,8.20
2020,03,31,12,30,8.30
2020,03,31,12,31,8.30
2020,03,31,12,32,8.50
2020,03,31,12,33,8.60
2020,03,31,12,34,8.50
2020,03,31,12,35,8.50
2020,03,31,12,36,8.40
2020,03,31,12,37,8.40
2020,03,31,12,38,8.50
2020,03,31,12,39,8.50
2020,03,31,12,40,8.60
2020,03,31,12,41,8.60
2020,03,31,12,42,8.60
2020,03,31,12,43,8.50
2020,03,31,12,44,8.50
2020,03,31,12,45,8.40
2020,03,31,12,46,8.40
2020,03,31,12,47,8.30
2020,03,31,12,48,8.20
2020,03,31,12,49,8.20
2020,03,31,12,50,8.20
2020,03,31,12,51,8.20
2020,03,31,12,52,8.30
2020,03,31,12,53,8.30
2020,03,31,12,54,8.30
2020,03,31,12,55,8.30
2020,03,31,12,56,8.30
2020,03,31,12,57,8.20
2020,03,31,12,58,8.20
2020,03,31,12,59,8.10
2020,03,31,13,00,8.10
2020,03,31,13,01,8.10
2020,03,31,13,02,8.10
2020,03,31,13,03,8.10
2020,03,31,13,04,8.10
2020,03,31,13,05,8.10
2020,03,31,13,06,8.00
2020,03,31,13,07,8.00
2020,03,31,13,08,8.00
2020,03,31,13,09,7.90
2020,03,31,13,10,7.90
2020,03,31,13,11,7.90
2020,03,31,13,12,7.90
2020,03,31,13,13,7.90
2020,03,31,13,14,7.90
2020,03,31,13,15,7.90
2020,03,31,13,16,7.90
2020,03,31,13,17,7.90
2020,03,31,13,18,7.90
2020,03,31,13,19,7.90
2020,03,31,13,20,7.90
2020,03,31,13,21,7.90
2020,03,31,13,22,8.00
2020,03,31,13,23,8.00
2020,03,31,13,24,8.10
2020,03,31,13,25,8.10
2020,03,31,13,26,8.20
2020,03,31,13,27,8.20
2020,03,31,13,28,8.20
2020,03,31,13,29,8.20
2020,03,31,13,30,8.30
2020,03,31,13,31,8.30
2020,03,31,13,32,8.30
2020,03,31,13,33,8.30
2020,03,31,13,34,8.30
2020,03,31,13,35,8.30
2020,03,31,13,36,8.30
2020,03,31,13,37,8.30
2020,03,31,13,38,8.30
2020,03,31,13,39,8.30
2020,03,31,13,40,8.20
2020,03,31,13,41,8.20
2020,03,31,13,42,8.20
2020,03,31,13,43,8.20
2020,03,31,13,44,8.20
2020,03,31,13,45,8.20
2020,03,31,13,46,8.20
2020,03,31,13,47,8.20
2020,03,31,13,48,8.20
2020,03,31,13,49,8.20
2020,03,31,13,50,8.20
2020,03,31,13,51,8.20
2020,03,31,13,52,8.20
2020,03,31,13,53,8.20
2020,03,31,13,54,8.20
2020,03,31,13,55,8.20
2020,03,31,13,56,8.20
2020,03,31,13,57,8.20
2020,03,31,13,58,8.20
2020,03,31,13,59,8.10
2020,03,31,14,00,8.00
2020,03,31,14,01,7.90
2020,03,31,14,02,7.70
2020,03,31,14,03,7.60
2020,03,31,14,04,7.60
2020,03,31,14,05,7.40
2020,03,31,14,06,7.30
2020,03,31,14,07,7.20
2020,03,31,14,08,7.10
2020,03,31,14,09,6.90
2020,03,31,14,10,6.80
2020,03,31,14,11,6.70
2020,03,31,14,12,6.60
2020,03,31,14,13,6.60
2020,03,31,14,14,6.50
2020,03,31,14,15,6.40
2020,03,31,14,16,6.40
2020,03,31,14,17,6.40
2020,03,31,14,18,6.40
2020,03,31,14,19,6.40
2020,03,31,14,20,6.40
2020,03,31,14,21,6.30
2020,03,31,14,22,6.30
2020,03,31,14,23,6.30
2020,03,31,14,24,6.30
2020,03,31,14,25,6.30
2020,03,31,14,26,6.30
2020,03,31,14,27,6.30
2020,03,31,14,28,6.30
2020,03,31,14,29,6.30
2020,03,31,14,30,6.30
2020,03,31,14,31,6.30
2020,03,31,14,32,6.20
2020,03,31,14,33,6.20
2020,03,31,14,34,6.30
2020,03,31,14,35,6.30
2020,03,31,14,36,6.30
2020,03,31,14,37,6.30
2020,03,31,14,38,6.30
2020,03,31,14,39,6.20
2020,03,31,14,40,6.20
2020,03,31,14,41,6.20
2020,03,31,14,42,6.20
2020,03,31,14,43,6.20
2020,03,31,14,44,6.20
2020,03,31,14,45,6.20
2020,03,31,14,46,6.20
2020,03,31,14,47,6.20
2020,03,31,14,48,6.20
2020,03,31,14,49,6.20
2020,03,31,14,50,6.20
2020,03,31,14,51,6.20
2020,03,31,14,52,6.30
2020,03,31,14,53,6.30
2020,03,31,14,54,6.20
2020,03,31,14,55,6.10
2020,03,31,14,56,6.10
2020,03,31,14,57,6.10
2020,03,31,14,58,6.10
2020,03,31,14,59,6.20
2020,03,31,15,00,6.20
2020,03,31,15,01,6.30
2020,03,31,15,02,6.30
2020,03,31,15,03,6.30
2020,03,31,15,04,6.30
2020,03,31,15,05,6.30
2020,03,31,15,06,6.30
2020,03,31,15,07,6.30
2020,03,31,15,08,6.30
2020,03,31,15,09,6.30
2020,03,31,15,10,6.30
2020,03,31,15,11,6.30
2020,03,31,15,12,6.30
2020,03,31,15,13,6.40
2020,03,31,15,14,6.40
2020,03,31,15,15,6.40
2020,03,31,15,16,6.40
2020,03,31,15,17,6.40
2020,03,31,15,18,6.40
2020,03,31,15,19,6.40
2020,03,31,15,20,6.40
2020,03,31,15,21,6.40
2020,03,31,15,22,6.40
2020,03,31,15,23,6.50
2020,03,31,15,24,6.50
2020,03,31,15,25,6.50
2020,03,31,15,26,6.50
2020,03,31,15,27,6.40
2020,03,31,15,28,6.40
2020,03,31,15,29,6.40
2020,03,31,15,30,6.40
2020,03,31,15,31,6.40
2020,03,31,15,32,6.40
2020,03,31,15,33,6.40
2020,03,31,15,34,6.40
2020,03,31,15,35,6.40
2020,03,31,15,36,6.40
2020,03,31,15,37,6.40
2020,03,31,15,38,6.40
2020,03,31,15,39,6.40
2020,03,31,15,40,6.40
2020,03,31,15,41,6.40
2020,03,31,15,42,6.40
2020,03,31,15,43,6.40
2020,03,31,15,44,6.40
2020,03,31,15,45,6.50
2020,03,31,15,46,6.50
2020,03,31,15,47,6.50
2020,03,31,15,48,6.50
2020,03,31,15,49,6.60
2020,03,31,15,50,6.60
2020,03,31,15,51,6.60
2020,03,31,15,52,6.60
2020,03,31,15,53,6.70
2020,03,31,15,54,6.70
2020,03,31,15,55,6.60
2020,03,31,15,56,6.60
2020,03,31,15,57,6.60
2020,03,31,15,58,6.70
2020,03,31,15,59,6.70
2020,03,31,16,00,6.70
2020,03,31,16,01,6.70
2020,03,31,16,02,6.80
2020,03,31,16,03,6.80
2020,03,31,16,04,6.80
2020,03,31,16,05,6.80
2020,03,31,16,06,6.90
2020,03,31,16,07,6.90
2020,03,31,16,08,6.90
2020,03,31,16,09,7.00
2020,03,31,16,10,7.00
2020,03,31,16,11,7.00
2020,03,31,16,12,7.10
2020,03,31,16,13,7.10
2020,03,31,16,14,7.10
2020,03,31,16,15,7.10
2020,03,31,16,16,7.10
2020,03,31,16,17,7.20
2020,03,31,16,18,7.20
2020,03,31,16,19,7.30
2020,03,31,16,20,7.30
2020,03,31,16,21,7.30
2020,03,31,16,22,7.40
2020,03,31,16,23,7.40
2020,03,31,16,24,7.40
2020,03,31,16,25,7.30
2020,03,31,16,26,7.40
2020,03,31,16,27,7.40
2020,03,31,16,28,7.40
2020,03,31,16,29,7.40
2020,03,31,16,30,7.40
2020,03,31,16,31,7.30
2020,03,31,16,32,7.40
2020,03,31,16,33,7.40
2020,03,31,16,34,7.40
2020,03,31,16,35,7.40
2020,03,31,16,36,7.40
2020,03,31,16,37,7.40
2020,03,31,16,38,7.40
2020,03,31,16,39,7.40
2020,03,31,16,40,7.30
2020,03,31,16,41,7.30
2020,03,31,16,42,7.30
2020,03,31,16,43,7.30
2020,03,31,16,44,7.30
2020,03,31,16,45,7.30
2020,03,31,16,46,7.30
2020,03,31,16,47,7.30
2020,03,31,16,48,7.30
2020,03,31,16,49,7.30
2020,03,31,16,50,7.30
2020,03,31,16,51,7.30
2020,03,31,16,52,7.30
2020,03,31,16,53,7.20
2020,03,31,16,54,7.20
2020,03,31,16,55,7.20
2020,03,31,16,56,7.20
2020,03,31,16,57,7.20
2020,03,31,16,58,7.20
2020,03,31,16,59,7.20
2020,03,31,17,00,7.20
2020,03,31,17,01,7.20
2020,03,31,17,02,7.10
2020,03,31,17,03,7.10
2020,03,31,17,04,7.10
2020,03,31,17,05,7.00
2020,03,31,17,06,7.00
2020,03,31,17,07,7.00
2020,03,31,17,08,7.00
2020,03,31,17,09,7.00
2020,03,31,17,10,6.90
2020,03,31,17,11,6.90
2020,03,31,17,12,6.90
2020,03,31,17,13,6.90
2020,03,31,17,14,6.90
2020,03,31,17,15,6.90
2020,03,31,17,16,6.90
2020,03,31,17,17,6.90
2020,03,31,17,18,6.90
2020,03,31,17,19,6.90
2020,03,31,17,20,6.80
2020,03,31,17,21,6.80
2020,03,31,17,22,6.80
2020,03,31,17,23,6.80
2020,03,31,17,24,6.70
2020,03,31,17,25,6.70
2020,03,31,17,26,6.70
2020,03,31,17,27,6.70
2020,03,31,17,28,6.60
2020,03,31,17,29,6.60
2020,03,31,17,30,6.60
2020,03,31,17,31,6.60
2020,03,31,17,32,6.60
2020,03,31,17,33,6.60
2020,03,31,17,34,6.60
2020,03,31,17,35,6.60
2020,03,31,17,36,6.60
2020,03,31,17,37,6.50
2020,03,31,17,38,6.50
2020,03,31,17,39,6.50
2020,03,31,17,40,6.50
2020,03,31,17,41,6.40
2020,03,31,17,42,6.40
2020,03,31,17,43,6.40
2020,03,31,17,44,6.30
2020,03,31,17,45,6.20
2020,03,31,17,46,6.20
2020,03,31,17,47,6.20
2020,03,31,17,48,6.10
2020,03,31,17,49,6.10
2020,03,31,17,50,6.00
2020,03,31,17,51,6.00
2020,03,31,17,52,6.00
2020,03,31,17,53,5.90
2020,03,31,17,54,5.90
2020,03,31,17,55,5.90
2020,03,31,17,56,5.90
2020,03,31,17,57,5.90
2020,03,31,17,58,5.90
2020,03,31,17,59,5.90
2020,03,31,18,00,5.90
2020,03,31,18,01,5.90
2020,03,31,18,02,5.90
2020,03,31,18,03,6.00
2020,03,31,18,04,6.00
2020,03,31,18,05,6.00
2020,03,31,18,06,6.00